Simultaneous Nadir Overpasses (SNOs) Predictions

Prediction of SNOs between METOP-B and TERRA Satellite Orbit:

Table of predicted SNOs for the next 14.0 days since TLE Epoch: 10/31/2015
Index Date (METOP-B) Time (METOP-B) Lat,Lon (METOP-B) SZA (METOP-B ) Date (TERRA) Time (TERRA) Lat,Lon (TERRA) SZA (TERRA ) Distance(km) Time Diff (sec)
1 11/02/2015 21:55:42 -81.33, 78.67 80.64 11/02/2015 21:56:02 -81.32, 78.63 80.64 1.03 20
2 11/02/2015 22:46:22 81.33,-113.61 99.42 11/02/2015 22:45:28 81.33,-113.59 99.40 0.70 54
3 11/05/2015 17:30:02 -81.33, 145.28 79.75 11/05/2015 17:30:19 -81.34, 145.41 79.73 2.34 17
4 11/05/2015 18:20:42 81.34, -47.02 100.31 11/05/2015 18:19:45 81.34, -46.84 100.31 3.30 57
5 11/08/2015 13:04:23 -81.33,-148.54 78.96 11/08/2015 13:04:38 -81.33,-148.38 78.93 2.70 15
6 11
